Weather in Urkan

Russia / Amur Oblast     54°08′12″N   124°39′11″E
temp.,
°C
wind,
m/s
gust,
m/s
humid.,
%
clouds,
%
prec.,
mm/h
press.,
hPa
HPBL,
m
11 april, sun
sun1100:00−10nw278542 0.0 1022165
03:00−11nw38741 0.0 1024258
06:00−13nnw26792 0.0 1026124
09:00−8nnw47460 0.0 10271333
12:00−5nw4842100 0.0 10272231
15:00−6nw5844100 0.0 10282288
18:00−7n47548 0.0 10281533
21:00−13n219033 0.0 103128
12 april, mon
mon1200:00−14n238793 0.0 103249
03:00−15nnw238765 0.0 103157
06:00−16nnw23875 0.0 103160
09:00−9nnw46485 0.0 10281471
12:00−6nnw4644100 0.0 10261956
15:00−6nnw4651100 0.1 10241833
18:00−6nnw3758100 0.1 10221526
21:00−9nw2589100 0.1 1023124
13 april, tue
tue1300:00−11nw249356 0.1 102286
03:00−13nw249128 0.1 102176
06:00−14nw26885 0.0 1020109
09:00−7n585086 0.0 10181546
12:00−5n4647100 0.0 10161907
15:00−3n4645100 0.1 10141963
18:00−3n365361 0.0 10131575
21:00−10n22905 0.0 101526
14 april, wed
wed1400:00−12n22885 0.0 101436
03:00−13n21905 0.0 101323
06:00−13n219098 0.0 101219
09:00−6se1161100 0.0 1011244
12:00−1sw1251100 0.0 10091062
15:000ssw2347100 0.0 10081320
18:000wnw0160100 0.0 100887
21:00−6n2189100 0.0 101126
15 april, thu
thu1500:00−8n1193100 0.0 101120
03:00−9n119569 0.0 101116
06:00−10n119522 0.0 101218
09:00−2e016464 0.0 1010354
12:00+1sse3357100 0.0 10091061
15:00+1ese2267100 0.6 1008924
18:00−1ese1387100 1.2 1009398
21:00−5nne2193100 1.3 101124